KUIPER-00174

Last updated on Mon Oct 20 2025 00:02:07 GMT+0000 (Coordinated Universal Time)

1 65787U 25217AB 25292.30308574 .00065525 00000+0 17605-2 0 9993 2 65787 51.8743 327.4078 0002620 75.3363 284.7914 15.37298914 3671
UTC large
Height (km)
Speed (km/s)
/
Latitude / Longitude
Inclination (degrees)
Orbital Period (minutes)
Azimuth
Elevation
Range (km)
Doppler Factor

Next 0 passes for location: London (51.5072 / 0.1276)

Sorry there are no passes over London.